Time,TemperatureF,DewpointF,PressureIn,WindDirection,WindDirectionDegrees,WindSpeedMPH,WindSpeedGustMPH,Humidity,HourlyPrecipIn,Conditions,Clouds,dailyrainin,SoftwareType,DateUTC
2013-12-12 00:02:00,38.9,38.0,30.31,SSW,209,0.0,1.0,98,0.00,,,0.00,weatherlink.com 1.10,2013-12-12 05:02:00,
2013-12-12 00:17:00,39.3,39.0,30.30,SSW,210,0.0,1.0,97,0.00,,,0.00,weatherlink.com 1.10,2013-12-12 05:17:00,
2013-12-12 00:32:00,39.4,39.0,30.30,SSW,210,0.0,1.0,97,0.00,,,0.00,weatherlink.com 1.10,2013-12-12 05:32:00,
2013-12-12 00:47:00,39.7,39.0,30.29,SW,221,0.0,1.0,97,0.00,,,0.00,weatherlink.com 1.10,2013-12-12 05:47:00,
2013-12-12 01:02:00,40.1,39.0,30.29,SW,221,0.0,1.0,97,0.00,,,0.00,weatherlink.com 1.10,2013-12-12 06:02:00,
2013-12-12 01:17:00,40.2,39.0,30.29,SW,221,0.0,1.0,97,0.00,,,0.00,weatherlink.com 1.10,2013-12-12 06:17:00,
2013-12-12 01:32:00,40.3,40.0,30.29,SW,221,0.0,1.0,97,0.00,,,0.00,weatherlink.com 1.10,2013-12-12 06:32:00,
2013-12-12 01:47:00,40.4,40.0,30.29,SW,221,0.0,1.0,97,0.00,,,0.00,weatherlink.com 1.10,2013-12-12 06:47:00,
2013-12-12 02:02:00,40.4,40.0,30.30,SW,221,0.0,1.0,97,0.00,,,0.00,weatherlink.com 1.10,2013-12-12 07:02:00,
2013-12-12 02:17:00,40.4,40.0,30.29,SW,221,0.0,1.0,97,0.00,,,0.00,weatherlink.com 1.10,2013-12-12 07:17:00,
2013-12-12 02:32:00,40.1,39.0,30.29,SW,217,0.0,2.0,96,0.00,,,0.00,weatherlink.com 1.10,2013-12-12 07:32:00,
2013-12-12 02:47:00,39.3,38.0,30.29,SW,217,0.0,0.0,96,0.00,,,0.00,weatherlink.com 1.10,2013-12-12 07:47:00,
2013-12-12 03:03:00,38.7,38.0,30.29,SW,217,0.0,0.0,96,0.00,,,0.00,weatherlink.com 1.10,2013-12-12 08:03:00,
2013-12-12 03:17:00,38.3,37.0,30.29,SW,222,0.0,1.0,96,0.00,,,0.00,weatherlink.com 1.10,2013-12-12 08:17:00,
2013-12-12 03:32:00,37.6,37.0,30.29,SW,223,0.0,1.0,96,0.00,,,0.00,weatherlink.com 1.10,2013-12-12 08:32:00,
2013-12-12 03:47:00,37.1,36.0,30.30,SW,222,0.0,0.0,96,0.00,,,0.00,weatherlink.com 1.10,2013-12-12 08:47:00,
2013-12-12 04:02:00,36.5,36.0,30.30,SW,222,0.0,1.0,96,0.00,,,0.00,weatherlink.com 1.10,2013-12-12 09:02:00,
2013-12-12 04:17:00,36.1,35.0,30.29,SW,222,0.0,1.0,97,0.00,,,0.00,weatherlink.com 1.10,2013-12-12 09:17:00,
2013-12-12 04:32:00,35.9,35.0,30.29,SW,222,0.0,1.0,97,0.00,,,0.00,weatherlink.com 1.10,2013-12-12 09:32:00,
2013-12-12 04:47:00,35.5,35.0,30.29,SW,222,0.0,0.0,97,0.00,,,0.00,weatherlink.com 1.10,2013-12-12 09:47:00,
2013-12-12 05:02:00,35.2,35.0,30.29,SW,222,0.0,0.0,97,0.00,,,0.00,weatherlink.com 1.10,2013-12-12 10:02:00,
2013-12-12 05:17:00,34.9,34.0,30.30,SW,222,0.0,1.0,97,0.00,,,0.00,weatherlink.com 1.10,2013-12-12 10:17:00,
2013-12-12 05:32:00,34.5,34.0,30.30,SW,222,0.0,1.0,97,0.00,,,0.00,weatherlink.com 1.10,2013-12-12 10:32:00,
2013-12-12 05:47:00,34.0,33.0,30.30,SW,222,0.0,1.0,97,0.00,,,0.00,weatherlink.com 1.10,2013-12-12 10:47:00,
2013-12-12 06:02:00,33.6,33.0,30.30,SW,222,0.0,1.0,97,0.00,,,0.00,weatherlink.com 1.10,2013-12-12 11:02:00,
2013-12-12 06:18:00,33.2,33.0,30.30,SW,222,0.0,1.0,97,0.00,,,0.00,weatherlink.com 1.10,2013-12-12 11:18:00,
2013-12-12 06:33:00,32.7,32.0,30.31,SW,222,0.0,0.0,97,0.00,,,0.00,weatherlink.com 1.10,2013-12-12 11:33:00,
2013-12-12 06:48:00,32.3,32.0,30.32,SW,221,0.0,1.0,97,0.00,,,0.00,weatherlink.com 1.10,2013-12-12 11:48:00,
2013-12-12 07:03:00,31.9,31.0,30.32,SW,222,0.0,0.0,98,0.00,,,0.00,weatherlink.com 1.10,2013-12-12 12:03:00,
2013-12-12 07:18:00,31.4,31.0,30.33,SW,222,0.0,1.0,98,0.00,,,0.00,weatherlink.com 1.10,2013-12-12 12:18:00,
2013-12-12 07:33:00,31.0,31.0,30.34,SW,222,0.0,0.0,98,0.00,,,0.00,weatherlink.com 1.10,2013-12-12 12:33:00,
2013-12-12 07:48:00,31.5,31.0,30.35,SW,222,1.0,1.0,98,0.00,,,0.00,weatherlink.com 1.10,2013-12-12 12:48:00,
2013-12-12 08:03:00,32.1,32.0,30.36,SW,222,0.0,1.0,98,0.00,,,0.00,weatherlink.com 1.10,2013-12-12 13:03:00,
2013-12-12 08:18:00,33.1,33.0,30.36,SW,222,0.0,1.0,99,0.00,,,0.00,weatherlink.com 1.10,2013-12-12 13:18:00,
2013-12-12 08:33:00,34.6,34.0,30.37,WSW,239,1.0,2.0,99,0.00,,,0.00,weatherlink.com 1.10,2013-12-12 13:33:00,
2013-12-12 08:48:00,36.8,37.0,30.38,SE,124,0.0,4.0,99,0.00,,,0.00,weatherlink.com 1.10,2013-12-12 13:48:00,
2013-12-12 09:03:00,39.3,39.0,30.39,NE,41,4.0,6.0,97,0.00,,,0.00,weatherlink.com 1.10,2013-12-12 14:03:00,
2013-12-12 09:18:00,42.5,36.0,30.39,East,90,1.0,3.0,79,0.00,,,0.00,weatherlink.com 1.10,2013-12-12 14:18:00,
2013-12-12 09:33:00,44.5,34.0,30.40,East,91,4.0,8.0,67,0.00,,,0.00,weatherlink.com 1.10,2013-12-12 14:33:00,
2013-12-12 09:48:00,45.7,34.0,30.40,NW,307,1.0,5.0,63,0.00,,,0.00,weatherlink.com 1.10,2013-12-12 14:48:00,
2013-12-12 10:03:00,45.8,31.0,30.40,SSW,200,1.0,6.0,56,0.00,,,0.00,weatherlink.com 1.10,2013-12-12 15:03:00,
2013-12-12 10:18:00,46.9,32.0,30.41,NW,312,1.0,5.0,57,0.00,,,0.00,weatherlink.com 1.10,2013-12-12 15:18:00,
2013-12-12 10:33:00,47.5,30.0,30.40,NNW,330,2.0,5.0,51,0.00,,,0.00,weatherlink.com 1.10,2013-12-12 15:33:00,
2013-12-12 10:48:00,48.3,31.0,30.40,NNW,327,0.0,6.0,51,0.00,,,0.00,weatherlink.com 1.10,2013-12-12 15:48:00,
2013-12-12 11:04:00,48.9,30.0,30.39,ENE,75,1.0,5.0,48,0.00,,,0.00,weatherlink.com 1.10,2013-12-12 16:04:00,
2013-12-12 11:18:00,49.1,30.0,30.39,ESE,117,2.0,11.0,48,0.00,,,0.00,weatherlink.com 1.10,2013-12-12 16:18:00,
2013-12-12 11:33:00,49.2,30.0,30.38,NNW,342,0.0,7.0,47,0.00,,,0.00,weatherlink.com 1.10,2013-12-12 16:33:00,
2013-12-12 11:48:00,50.5,31.0,30.38,WNW,288,2.0,4.0,47,0.00,,,0.00,weatherlink.com 1.10,2013-12-12 16:48:00,
2013-12-12 12:03:00,50.5,30.0,30.37,NNW,342,3.0,9.0,45,0.00,,,0.00,weatherlink.com 1.10,2013-12-12 17:03:00,
2013-12-12 12:18:00,51.1,31.0,30.37,ENE,70,3.0,5.0,46,0.00,,,0.00,weatherlink.com 1.10,2013-12-12 17:18:00,
2013-12-12 12:33:00,50.8,29.0,30.36,ENE,72,4.0,8.0,43,0.00,,,0.00,weatherlink.com 1.10,2013-12-12 17:33:00,
2013-12-12 12:49:00,51.1,31.0,30.35,North,1,3.0,9.0,46,0.00,,,0.00,weatherlink.com 1.10,2013-12-12 17:49:00,
2013-12-12 13:04:00,51.5,29.0,30.35,NE,54,2.0,9.0,42,0.00,,,0.00,weatherlink.com 1.10,2013-12-12 18:04:00,
2013-12-12 13:19:00,51.5,29.0,30.34,SE,141,1.0,4.0,43,0.00,,,0.00,weatherlink.com 1.10,2013-12-12 18:19:00,
2013-12-12 13:34:00,51.6,28.0,30.34,NW,314,2.0,10.0,41,0.00,,,0.00,weatherlink.com 1.10,2013-12-12 18:34:00,
2013-12-12 13:49:00,52.0,28.0,30.34,WNW,283,1.0,7.0,40,0.00,,,0.00,weatherlink.com 1.10,2013-12-12 18:49:00,
2013-12-12 14:04:00,52.0,31.0,30.33,WNW,295,2.0,5.0,44,0.00,,,0.00,weatherlink.com 1.10,2013-12-12 19:04:00,
2013-12-12 14:19:00,52.0,29.0,30.34,SW,214,0.0,4.0,42,0.00,,,0.00,weatherlink.com 1.10,2013-12-12 19:19:00,
2013-12-12 14:34:00,52.0,29.0,30.34,SW,235,2.0,6.0,42,0.00,,,0.00,weatherlink.com 1.10,2013-12-12 19:34:00,
2013-12-12 14:49:00,51.7,28.0,30.33,SSE,158,1.0,4.0,41,0.00,,,0.00,weatherlink.com 1.10,2013-12-12 19:49:00,
2013-12-12 15:04:00,51.5,28.0,30.33,WSW,240,0.0,3.0,40,0.00,,,0.00,weatherlink.com 1.10,2013-12-12 20:04:00,
2013-12-12 15:20:00,51.7,28.0,30.32,SE,124,0.0,3.0,41,0.00,,,0.00,weatherlink.com 1.10,2013-12-12 20:20:00,
2013-12-12 15:34:00,51.0,30.0,30.33,North,349,1.0,2.0,44,0.00,,,0.00,weatherlink.com 1.10,2013-12-12 20:34:00,
2013-12-12 15:49:00,50.1,29.0,30.33,SSW,197,1.0,3.0,44,0.00,,,0.00,weatherlink.com 1.10,2013-12-12 20:49:00,
2013-12-12 16:04:00,49.2,30.0,30.34,NE,34,0.0,1.0,48,0.00,,,0.00,weatherlink.com 1.10,2013-12-12 21:04:00,
2013-12-12 16:19:00,48.1,30.0,30.34,WNW,297,0.0,3.0,50,0.00,,,0.00,weatherlink.com 1.10,2013-12-12 21:19:00,
2013-12-12 16:34:00,47.3,30.0,30.35,WNW,283,1.0,2.0,52,0.00,,,0.00,weatherlink.com 1.10,2013-12-12 21:34:00,
2013-12-12 16:49:00,45.8,29.0,30.35,South,184,0.0,1.0,53,0.00,,,0.00,weatherlink.com 1.10,2013-12-12 21:49:00,
2013-12-12 17:04:00,44.1,31.0,30.36,SSW,197,0.0,1.0,60,0.00,,,0.00,weatherlink.com 1.10,2013-12-12 22:04:00,
2013-12-12 17:19:00,42.3,30.0,30.37,SSW,197,0.0,1.0,62,0.00,,,0.00,weatherlink.com 1.10,2013-12-12 22:19:00,
2013-12-12 17:34:00,40.8,30.0,30.37,SSW,198,0.0,1.0,65,0.00,,,0.00,weatherlink.com 1.10,2013-12-12 22:34:00,
2013-12-12 17:49:00,39.4,31.0,30.38,SSW,198,0.0,1.0,73,0.00,,,0.00,weatherlink.com 1.10,2013-12-12 22:49:00,
2013-12-12 18:04:00,38.3,31.0,30.38,WSW,253,0.0,1.0,75,0.00,,,0.00,weatherlink.com 1.10,2013-12-12 23:04:00,
2013-12-12 18:19:00,37.6,31.0,30.38,West,259,0.0,1.0,78,0.00,,,0.00,weatherlink.com 1.10,2013-12-12 23:19:00,
2013-12-12 18:34:00,36.8,31.0,30.39,WSW,258,0.0,0.0,79,0.00,,,0.00,weatherlink.com 1.10,2013-12-12 23:34:00,
2013-12-12 18:50:00,36.0,30.0,30.38,West,259,0.0,0.0,79,0.00,,,0.00,weatherlink.com 1.10,2013-12-12 23:50:00,
2013-12-12 19:04:00,35.2,30.0,30.39,West,259,0.0,0.0,81,0.00,,,0.00,weatherlink.com 1.10,2013-12-13 00:04:00,
2013-12-12 19:19:00,34.5,30.0,30.40,West,262,0.0,1.0,84,0.00,,,0.00,weatherlink.com 1.10,2013-12-13 00:19:00,
2013-12-12 19:34:00,33.8,30.0,30.40,West,263,0.0,0.0,84,0.00,,,0.00,weatherlink.com 1.10,2013-12-13 00:34:00,
2013-12-12 19:49:00,33.5,30.0,30.40,West,262,0.0,0.0,85,0.00,,,0.00,weatherlink.com 1.10,2013-12-13 00:49:00,
2013-12-12 20:04:00,32.9,29.0,30.41,West,263,0.0,0.0,86,0.00,,,0.00,weatherlink.com 1.10,2013-12-13 01:04:00,
2013-12-12 20:19:00,32.0,28.0,30.41,West,263,0.0,0.0,86,0.00,,,0.00,weatherlink.com 1.10,2013-12-13 01:19:00,
2013-12-12 20:34:00,31.4,28.0,30.41,West,263,0.0,0.0,87,0.00,,,0.00,weatherlink.com 1.10,2013-12-13 01:34:00,
2013-12-12 20:49:00,31.1,28.0,30.42,West,262,0.0,1.0,88,0.00,,,0.00,weatherlink.com 1.10,2013-12-13 01:49:00,
2013-12-12 21:04:00,30.8,28.0,30.41,West,262,0.0,1.0,89,0.00,,,0.00,weatherlink.com 1.10,2013-12-13 02:04:00,
2013-12-12 21:19:00,30.4,28.0,30.41,West,262,0.0,0.0,89,0.00,,,0.00,weatherlink.com 1.10,2013-12-13 02:19:00,
2013-12-12 21:34:00,30.2,28.0,30.41,West,278,0.0,0.0,90,0.00,,,0.00,weatherlink.com 1.10,2013-12-13 02:34:00,
2013-12-12 21:49:00,29.7,27.0,30.42,West,277,0.0,0.0,90,0.00,,,0.00,weatherlink.com 1.10,2013-12-13 02:49:00,
2013-12-12 22:04:00,29.4,27.0,30.42,West,277,0.0,0.0,91,0.00,,,0.00,weatherlink.com 1.10,2013-12-13 03:04:00,
2013-12-12 22:19:00,29.2,27.0,30.42,West,277,0.0,0.0,92,0.00,,,0.00,weatherlink.com 1.10,2013-12-13 03:19:00,
2013-12-12 22:34:00,29.2,27.0,30.42,West,277,0.0,0.0,92,0.00,,,0.00,weatherlink.com 1.10,2013-12-13 03:34:00,
2013-12-12 22:49:00,29.2,27.0,30.41,WNW,283,0.0,0.0,92,0.00,,,0.00,weatherlink.com 1.10,2013-12-13 03:49:00,
2013-12-12 23:04:00,29.2,27.0,30.41,WNW,283,0.0,0.0,92,0.00,,,0.00,weatherlink.com 1.10,2013-12-13 04:04:00,
2013-12-12 23:19:00,29.0,27.0,30.40,WNW,282,0.0,0.0,93,0.00,,,0.00,weatherlink.com 1.10,2013-12-13 04:19:00,
2013-12-12 23:34:00,28.7,27.0,30.40,WNW,282,0.0,0.0,93,0.00,,,0.00,weatherlink.com 1.10,2013-12-13 04:34:00,
2013-12-12 23:49:00,28.6,27.0,30.39,WNW,283,0.0,0.0,93,0.00,,,0.00,weatherlink.com 1.10,2013-12-13 04:49:00,